Powrót do katalogu

ATLAS 5 CENTAUR DEB

LostHEO
NORAD 46663·DEBRIS·🇺🇸 United States

Wystrzelony Oct 17, 2018 z Cape Canaveral Space Force Station

Loading…

Następne Przeloty (najbliższe 24 godziny)

TLE

NieaktualneSource: Space-Track

Epoka: Jan 5, 2024, 23:09 UTC

1 46663U 18079CR  24005.96501785 -.00000104  00000-0  00000+0 0  9997
2 46663  11.8397 109.8475 4758738 171.4418 200.9717  1.83881474 21809

Śledź ATLAS 5 CENTAUR DEB w czasie rzeczywistym z AllMySat

Download on the App Store